Date String (YYYY-MM-DD hh:mm:ss) UTC,Instrument flags,absolute air pressure of the measurement (hPa),sample flow rate (lpm),inlet stack bypass flow (lpm),air temperature of the measurement (°C),ambient temperature measured by the external sensor (°C),aerosol sample conditioner tube jacket temperature (°C),OPC LED temperature (°C),internal box temperature (°C),relative humidity of the measurement (%),span deviation,mass concentration of particles derived from Lorenz-Mie calculation of OPC scattering (μg/m³),mass concentration of particles derived from Lorenz-Mie calculation of OPC scattering (μg/m³),mass concentration of particles derived from Lorenz-Mie calculation of OPC scattering (μg/m³)
DateTimeUTC,F1_M11,P_M11,Q1_M11,Q2_M11,T1_M11,T2_M11,T3_M11,T4_M11,T5_M11,U1_M11,ZSPAN_M11,X0_M11,X2_M11,X1_M11
2024-05-11 19:00:00,SystemResetWarning,0827.4,4.99,000.00,025.0,024.6,000.0,032.9,026.9,024.4,0001.3,0020.13,0009.23,0008.34
2024-05-11 19:01:00,SystemResetWarning,0827.2,5.00,000.00,025.0,024.7,000.0,033.0,026.9,024.4,0001.7,0019.87,0009.24,0008.38
2024-05-11 19:02:00,SystemResetWarning,0827.2,5.02,000.00,025.1,024.7,000.0,033.0,027.0,023.4,0001.8,0019.77,0009.25,0008.39
2024-05-11 19:03:00,SystemResetWarning,0827.2,5.00,000.00,025.1,024.2,000.0,033.1,026.7,022.4,0001.3,0019.49,0009.09,0008.27
2024-05-11 19:04:00,SystemResetWarning,0827.2,4.98,000.00,024.7,022.0,000.0,033.2,025.5,021.2,0001.1,0019.24,0008.77,0008.00
2024-05-11 19:05:00,SystemResetWarning,0827.1,5.02,000.00,024.3,021.1,000.0,033.2,025.0,021.6,0000.6,0018.67,0008.39,0007.64
2024-05-11 19:06:00,SystemResetWarning,0827.2,4.98,000.00,024.2,021.5,000.0,033.1,025.2,022.2,0000.0,0018.24,0008.03,0007.30
2024-05-11 19:07:00,SystemResetWarning,0827.2,5.00,000.00,024.2,021.9,000.0,032.9,025.4,020.5,0000.0,0017.56,0007.74,0007.01
2024-05-11 19:08:00,SystemResetWarning,0827.2,5.01,000.00,024.2,022.3,000.0,032.8,025.6,020.0,0000.0,0015.72,0007.40,0006.65
2024-05-11 19:09:00,SystemResetWarning,0827.2,5.00,000.00,024.3,022.7,000.0,032.7,025.9,019.5,0000.0,0014.70,0006.98,0006.27
2024-05-11 19:10:00,SystemResetWarning,0827.1,4.99,000.00,024.3,023.0,000.0,032.7,026.0,019.6,0000.0,0013.85,0006.57,0005.87
2024-05-11 19:11:00,SystemResetWarning,0827.1,5.00,000.00,024.4,023.3,000.0,032.7,026.2,020.3,0000.0,0013.52,0006.20,0005.50
2024-05-11 19:12:00,SystemResetWarning,0827.1,5.01,000.00,024.5,023.6,000.0,032.7,026.3,020.7,0000.0,0013.49,0005.86,0005.16
2024-05-11 19:13:00,SystemResetWarning,0827.2,5.00,000.00,024.5,023.8,000.0,032.7,026.4,021.6,0000.0,0012.85,0005.54,0004.88
2024-05-11 19:14:00,SystemResetWarning,0827.2,4.99,000.00,024.6,024.0,000.0,032.7,026.5,022.9,0000.0,0012.35,0005.40,0004.75
2024-05-11 19:15:00,SystemResetWarning,0827.1,4.99,000.00,024.7,024.1,000.0,032.7,026.6,023.5,0000.0,0012.02,0005.44,0004.78
2024-05-11 19:16:00,SystemResetWarning,0827.1,5.00,000.00,024.8,024.2,000.0,032.8,026.7,023.6,0000.0,0011.68,0005.55,0004.92
2024-05-11 19:17:00,SystemResetWarning,0827.0,5.01,000.00,024.8,024.4,000.0,032.8,026.7,023.1,0000.0,0011.01,0005.69,0005.06
2024-05-11 19:18:00,SystemResetWarning,0827.1,5.01,000.00,024.9,024.5,000.0,032.8,026.8,023.2,0000.0,0010.99,0005.85,0005.24
2024-05-11 19:19:00,SystemResetWarning,0827.1,5.00,000.00,025.0,024.6,000.0,032.9,026.9,024.1,0000.0,0011.47,0006.06,0005.46
2024-05-11 19:20:00,SystemResetWarning,0827.1,4.99,000.00,025.0,024.2,000.0,032.9,026.7,023.5,0000.0,0012.09,0006.40,0005.75
2024-05-11 19:21:00,SystemResetWarning,0827.0,4.99,000.00,024.7,022.0,000.0,033.0,025.4,023.1,0000.0,0013.72,0006.81,0006.12
2024-05-11 19:22:00,SystemResetWarning,0827.0,5.02,000.00,024.2,021.0,000.0,033.0,024.9,023.2,0000.0,0014.15,0007.07,0006.35
2024-05-11 19:23:00,SystemResetWarning,0827.0,5.00,000.00,024.1,021.4,000.0,033.0,025.0,023.8,0000.0,0014.75,0007.30,0006.55
2024-05-11 19:24:00,SystemResetWarning,0827.0,5.00,000.00,024.1,021.8,000.0,032.8,025.2,023.9,0000.0,0015.74,0007.55,0006.77
2024-05-11 19:25:00,SystemResetWarning,0826.9,5.00,000.00,024.1,022.2,000.0,032.7,025.5,023.8,0000.3,0016.26,0007.79,0006.98
2024-05-11 19:26:00,SystemResetWarning,0826.9,5.00,000.00,024.2,022.6,000.0,032.6,025.7,023.6,0000.0,0016.85,0007.91,0007.10
2024-05-11 19:27:00,SystemResetWarning,0826.9,5.01,000.00,024.2,023.0,000.0,032.6,026.0,023.7,0001.0,0017.27,0007.94,0007.13
2024-05-11 19:28:00,SystemResetWarning,0826.9,5.01,000.00,024.3,023.3,000.0,032.5,026.1,023.5,0001.8,0017.51,0007.98,0007.14
2024-05-11 19:29:00,SystemResetWarning,0826.8,5.00,000.00,024.4,023.5,000.0,032.5,026.3,023.1,0002.0,0017.49,0007.92,0007.07
2024-05-11 19:30:00,SystemResetWarning,0826.8,4.99,000.00,024.5,023.7,000.0,032.6,026.4,023.0,0001.6,0017.21,0007.84,0006.98
2024-05-11 19:31:00,SystemResetWarning,0826.8,5.00,000.00,024.5,023.9,000.0,032.6,026.4,022.9,0001.9,0016.95,0007.69,0006.82
2024-05-11 19:32:00,SystemResetWarning,0826.8,5.00,000.00,024.6,024.1,000.0,032.6,026.5,022.7,0002.4,0016.45,0007.48,0006.63
2024-05-11 19:33:00,SystemResetWarning,0826.8,5.00,000.00,024.7,024.2,000.0,032.6,026.6,023.0,0002.3,0016.45,0007.39,0006.53
2024-05-11 19:34:00,SystemResetWarning,0826.8,5.00,000.00,024.8,024.3,000.0,032.7,026.7,022.7,0002.1,0015.72,0007.26,0006.45
2024-05-11 19:35:00,SystemResetWarning,0826.7,5.00,000.00,024.8,024.4,000.0,032.7,026.8,022.3,0002.2,0015.03,0007.05,0006.27
2024-05-11 19:36:00,SystemResetWarning,0826.7,5.00,000.00,024.9,024.5,000.0,032.8,026.8,021.2,0002.4,0014.57,0006.85,0006.05
2024-05-11 19:37:00,SystemResetWarning,0826.6,5.00,000.00,025.0,024.6,000.0,032.8,026.9,021.1,0002.6,0013.43,0006.68,0005.89
2024-05-11 19:38:00,SystemResetWarning,0826.6,4.98,000.00,024.9,023.4,000.0,032.9,026.2,021.5,0002.8,0013.04,0006.56,0005.75
2024-05-11 19:39:00,SystemResetWarning,0826.6,5.02,000.00,024.5,022.0,000.0,033.0,025.5,021.3,0002.6,0012.86,0006.42,0005.62
2024-05-11 19:40:00,SystemResetWarning,0826.6,5.00,000.00,024.4,022.3,000.0,033.0,025.5,020.6,0001.8,0012.68,0006.27,0005.49
2024-05-11 19:41:00,SystemResetWarning,0826.6,5.00,000.00,024.4,022.6,000.0,032.9,025.7,020.7,0001.5,0013.16,0006.10,0005.35
2024-05-11 19:42:00,SystemResetWarning,0826.6,5.00,000.00,024.4,022.9,000.0,032.8,026.0,021.5,0000.3,0012.88,0005.95,0005.22
2024-05-11 19:43:00,SystemResetWarning,0826.6,5.01,000.00,024.5,023.2,000.0,032.7,026.2,021.2,0000.0,0012.97,0005.84,0005.11
2024-05-11 19:44:00,SystemResetWarning,0826.6,5.00,000.00,024.5,023.5,000.0,032.7,026.3,021.6,0000.0,0011.95,0005.74,0004.99
2024-05-11 19:45:00,SystemResetWarning,0826.6,5.00,000.00,024.6,023.7,000.0,032.7,026.4,021.8,0000.0,0012.00,0005.68,0004.90
2024-05-11 19:46:00,SystemResetWarning,0826.6,5.00,000.00,024.7,023.9,000.0,032.7,026.6,021.8,0000.0,0011.61,0005.66,0004.86
2024-05-11 19:47:00,SystemResetWarning,0826.6,5.00,000.00,024.8,024.1,000.0,032.8,026.6,021.9,0000.0,0011.54,0005.62,0004.82
2024-05-11 19:48:00,SystemResetWarning,0826.6,5.00,000.00,024.8,024.3,000.0,032.8,026.7,021.7,0000.0,0012.43,0005.57,0004.77
2024-05-11 19:49:00,SystemResetWarning,0826.6,5.00,000.00,024.9,024.4,000.0,032.8,026.8,021.8,0000.0,0012.19,0005.51,0004.75
2024-05-11 19:50:00,SystemResetWarning,0826.6,4.99,000.00,025.0,024.4,000.0,032.9,026.8,021.5,0000.0,0012.05,0005.51,0004.76
2024-05-11 19:51:00,SystemResetWarning,0826.6,5.00,000.00,024.8,022.8,000.0,033.0,025.9,021.8,0000.0,0011.88,0005.54,0004.80
2024-05-11 19:52:00,SystemResetWarning,0826.5,5.01,000.00,024.3,020.9,000.0,033.0,024.9,022.4,0000.0,0011.31,0005.61,0004.86
2024-05-11 19:53:00,SystemResetWarning,0826.6,5.01,000.00,024.1,021.1,000.0,033.0,024.9,022.9,0000.0,0011.65,0005.68,0004.91
2024-05-11 19:54:00,SystemResetWarning,0826.6,5.01,000.00,024.0,021.5,000.0,032.8,025.1,022.3,0000.0,0012.10,0005.68,0004.93
2024-05-11 19:55:00,SystemResetWarning,0826.6,4.99,000.00,024.0,022.0,000.0,032.7,025.4,022.1,0000.0,0012.53,0005.68,0004.94
2024-05-11 19:56:00,SystemResetWarning,0826.6,5.00,000.00,024.1,022.4,000.0,032.6,025.6,021.9,0000.0,0013.11,0005.67,0004.96
2024-05-11 19:57:00,SystemResetWarning,0826.6,5.01,000.00,024.1,022.8,000.0,032.5,025.7,022.3,0000.0,0013.39,0005.68,0004.98
2024-05-11 19:58:00,SystemResetWarning,0826.6,5.01,000.00,024.2,023.1,000.0,032.5,026.0,022.4,0000.0,0013.81,0005.70,0005.00
2024-05-11 19:59:00,SystemResetWarning,0826.6,5.00,000.00,024.3,023.4,000.0,032.5,026.1,022.3,0000.0,0013.37,0005.68,0005.00
